Location: Edinburgh
(55.9500°N, 3.1600°W)
Time: 00:08:10
(UTC+01:00)

AO-91 - Pass Details

Date: 06 June 2024
Orbit: 442 x 732 km, 97.6° (Epoch: 21 June)

Event Time Altitude Azimuth Distance (km) Brightness Sun altitude
Rises 01:24:32 0° 5° (N) 3,024 ? -11.3°
Reaches altitude 10° 01:28:15 10° 333° (NNW) 2,164 ? -11.3°
Maximum altitude 01:29:50 12° 314° (NW) 2,074 ? -11.3°
Drops below altitude 10° 01:31:26 10° 294° (WNW) 2,199 ? -11.2°
Sets 01:35:19 0° 263° (W) 3,148 ? -11.2°
